Verkhoyansk (Russia)  www.meteorete.it

situazione meteo Attuale :08:03:53
Temperatura : 23.4
Umidita :34.2 %
Pressione :1003.2 hPa
Vel vento :2.3 Km
Direz. :SW
Precip.(mm.):0.0
   

Condizioni Meteo per: Verkhoyansk, Russia

aggiornamento precedente: 26.06.2017 19:30
prossimo aggiornamento: 27.06.2017 08:00
Latitude: 67.55° N
Longitude: 133.39° E
Altitude: 278 m

hPa
mm °C
    Temperatura Precipitazioni Pressione vento Umidità Nuvoloso Nebbia
Keskiyön aurinko OGGI
10:00   1003.2 hPa 2.3 m/s 34% 81%
12:00   1002.6 hPa 2.8 m/s 30% 99%
14:00   1001.6 hPa 2.1 m/s 23% 60%
16:00   1001.2 hPa 2.1 m/s 21% 84%
18:00   1001.2 hPa 2.8 m/s 24% 95%
20:00   1001.4 hPa 1.6 m/s 37% 77%
22:00   1002.0 hPa 1.8 m/s 46% 84%
Keskiyön aurinko DOMANI
00:00   1002.4 hPa 1.7 m/s 54% 98%
02:00   1002.9 hPa 1.6 m/s 65% 100%
04:00   1003.2 hPa 2.0 m/s 62% 98%
06:00   1004.7 hPa 2.8 m/s 71% 45%
08:00   1005.2 hPa 3.7 m/s 58% 23%
10:00   1005.9 hPa 4.0 m/s 55% 31%
12:00   1006.3 hPa 4.2 m/s 48% 92%
14:00   1006.3 hPa 4.0 m/s 46% 41%
16:00   1006.6 hPa 3.8 m/s 43% 56%
18:00   1006.9 hPa 4.2 m/s 39% 43%
20:00   1007.8 hPa 4.0 m/s 40% 19%
22:00   1008.7 hPa 2.2 m/s 46% 49%
Keskiyön aurinko Giovedi 29.06.2017
00:00   1010.0 hPa 2.6 m/s 53% 16%
02:00   1011.1 hPa 3.3 m/s 64% 2%
04:00   1012.1 hPa 3.1 m/s 68% 1%
06:00   1013.0 hPa 3.1 m/s 66% 0%
08:00   1013.1 hPa 2.7 m/s 59% 1%
10:00   1012.4 hPa 1.9 m/s 51% 1%
12:00   1011.3 hPa 1.2 m/s 43% 53%
14:00   1009.4 hPa 0.5 m/s 37% 67%
16:00   1008.1 hPa 0.9 m/s 34% 14%
18:00   1006.9 hPa 1.5 m/s 33% 22%
20:00   1006.0 hPa 2.1 m/s 37% 14%
22:00   1005.0 hPa 2.0 m/s 47% 98%
Keskiyön aurinko Venerdi 30.06.2017
00:00   1003.7 hPa 1.9 m/s 55% 99%
02:00   1002.2 hPa 2.0 m/s 51% 95%
04:00   1000.7 hPa 1.5 m/s 53% 99%
16:00 2.1 mm 989.2 hPa 4.1 m/s 38% 93%
22:00   991.9 hPa 3.6 m/s 50% 81%
Keskiyön aurinko Sabato 01.07.2017
04:00   994.2 hPa 2.9 m/s 71% 34%
10:00   997.4 hPa 5.0 m/s 52% 40%
16:00   999.5 hPa 3.3 m/s 42% 97%
22:00   1000.5 hPa 2.3 m/s 57% 56%
Keskiyön aurinko Domenica 02.07.2017
04:00   998.9 hPa 2.2 m/s 72% 90%
10:00   994.4 hPa 3.6 m/s 43% 81%
16:00 1.2 mm 988.4 hPa 5.3 m/s 48% 95%
22:00 1.3 mm 986.5 hPa 4.6 m/s 67% 76%
Keskiyön aurinko Lunedi 03.07.2017
04:00   990.4 hPa 4.2 m/s 82% 17%
10:00   994.9 hPa 3.9 m/s 43% 2%
16:00   999.5 hPa 5.0 m/s 42% 92%
22:00   1005.2 hPa 4.2 m/s 58% 73%
Keskiyön aurinko Martedi 04.07.2017
04:00   1006.5 hPa 3.5 m/s 81% 100%
10:00   1002.8 hPa 3.4 m/s 58% 100%
16:00   998.3 hPa 2.4 m/s 52% 100%
22:00 4.7 mm 1000.3 hPa 2.2 m/s 92% 100%
Keskiyön aurinko Mercoledi 05.07.2017
04:00 2.6 mm 1003.5 hPa 1.7 m/s 99% 100%
10:00   1006.6 hPa 2.4 m/s 74% 99%
16:00   1007.6 hPa 1.4 m/s 55% 91%
22:00   1007.9 hPa 2.4 m/s 65% 48%
Keskiyön aurinko Giovedi 06.07.2017
04:00   1007.1 hPa 2.3 m/s 81% 95%
10:00   1004.3 hPa 1.3 m/s 72% 100%
16:00   998.0 hPa 2.9 m/s 44% 28%
22:00   994.1 hPa 4.7 m/s 44% 100%